www.pogodaiklimat.ru

Погода и климат >> Архив погоды >> Пакистан >> Сиби


ПОГОДА в Сиби

  • Прогноз погоды в Сиби
  • Монитор погоды в Сиби

АРХИВ ПОГОДЫ в Сиби

Время (UTC), дата Ветер
(напр.,м/с)
 
Видим.   Явления Облачность Т
(С)
Тd
(С)
f
(%)
Тe
(С)
Тes
(С)
Комфортность P
(гПа)
Po
(гПа)
Тmin
(С)
Tmax
(С)
R
(мм)
R24
(мм)
S
(см)
03 17.03 штиль 0 10 км ясно +18.3 +15.1 82 +19 +22 1017.1 1001.3 +16.5
06 17.03 штиль 0 10 км ясно +24.4 +14.5 54 +27 +46 жарко 1017.5 1000.0
09 17.03 штиль 0 10 км ясно +27.2 +12.5 40 +29 +48 жарко 1014.1 1000.0
12 17.03 ЮЗ 1 10 км ясно +28.3 +15.6 46 +31 +34 душно 1012.4 997.2 +29.1
15 17.03 штиль 0 4000 м ясно +25.0 +17.0 61 +29 +29 душно 1013.3 1000.0
18 17.03 штиль 0 4000 м 5/5 1200 м
[Sc]
+23.3 +17.1 68 +28 +28 душно 1014.1 1000.0
21 17.03 штиль 0 4000 м 10/5 1200 м
[Sc As op]
+21.7 +15.7 69 +25 +25 комфорт 1013.6 1000.0
00 18.03 штиль 0 4000 м 10/5 1200 м
[Sc As op]
+20.0 +15.8 77 +22 +22 комфорт 1013.0 997.3
03 18.03 штиль 0 10 км 10/10 300 м
[Sc As op]
+20.6 +15.5 73 +23 +24 комфорт 1015.4 999.7 +19.0
06 18.03 штиль 0 10 км 10/5 1200 м
[Sc As op]
+22.2 +15.4 65 +26 +28 душно 1016.6 1001.0
09 18.03 СЗ 1 10 км 5/5 1200 м
[Sc]
+25.0 +14.1 51 +27 +36 жарко 1014.3 998.8
12 18.03 СЗ 1 10 км ясно +25.6 +16.7 58 +29 +32 душно 1012.2 996.8 +26.5
15 18.03 штиль 0 4000 м ясно +23.9 +17.6 68 +28 +28 душно 1012.6 1000.0
18 18.03 штиль 0 4000 м ясно +21.7 +16.6 73 +26 +26 душно 1013.0 997.4
21 18.03 штиль 0 4000 м ясно +20.0 +16.7 81 +22 +22 комфорт 1012.2 1000.0
00 19.03 штиль 0 4000 м ясно +18.3 +16.0 86 +19 +19 1011.4 995.6
03 19.03 штиль 0 10 км ясно +19.4 +15.3 77 +21 +24 комфорт 1011.5 995.8 +17.1
06 19.03 СЗ 1 10 км ясно +23.9 +13.9 54 +26 +45 жарко 1011.5 1000.0
09 19.03 СЗ 1 10 км ясно +27.8 +12.8 40 +29 +46 жарко 1007.9 992.7
12 19.03 ЮЗ 1 10 км ясно +29.4 +10.3 31 +30 +33 жарко 1005.1 989.9 +30.1
15 19.03 ЮЗ 1 4000 м ясно +25.6 +13.7 48 +28 +28 жарко 1006.2 1000.0
18 19.03 штиль 0 4000 м ясно +22.8 +15.6 64 +27 +27 душно 1008.2 992.7
21 19.03 штиль 0 4000 м ясно +21.1 +14.2 65 +24 +24 комфорт 1007.6 1000.0
00 20.03 штиль 0 4000 м ясно +19.4 +14.4 73 +21 +21 комфорт 1006.9 991.2
03 20.03 штиль 0 10 км ясно +20.0 +13.0 64 +22 +25 комфорт 1009.4 993.7 +18.1
06 20.03 ЮЗ 2 10 км ясно +25.0 +12.0 44 +27 +41 жарко 1011.6 996.2
09 20.03 ЮЗ 1 10 км ясно +27.8 +9.2 31 +28 +46 жарко 1009.8 1000.0
12 20.03 ЮЗ 1 10 км ясно +28.3 +8.6 29 +28 +31 жарко 1008.7 993.5 +29.1
15 20.03 ЮЗ 1 4000 м ясно +25.6 +10.4 38 +26 +26 жарко 1010.6 1000.0
18 20.03 штиль 0 4000 м ясно +22.8 +14.6 60 +26 +26 жарко 1012.3 1000.0
21 20.03 штиль 0 4000 м ясно +21.1 +13.2 61 +23 +23 комфорт 1011.7 996.1
00 21.03 штиль 0 4000 м ясно +18.9 +12.8 68 +20 +20 1011.3 995.6
03 21.03 штиль 0 10 км ясно +19.4 +12.4 64 +21 +24 комфорт 1014.4 998.7 +17.5
06 21.03 ЮЗ 2 10 км ясно +25.0 +16.1 58 +28 +43 жарко 1016.8 1001.3
09 21.03 ЮЗ 2 10 км ясно +27.2 +12.5 40 +29 +43 жарко 1014.9 999.5
12 21.03 ЮЗ 1 10 км 9/5 1200 м
[Sc As op]
+26.7 +12.9 42 +28 +29 жарко 1013.4 998.1 +28.1
15 21.03 штиль 0 4000 м гроза без осадков {морось} 9/5 1200 м
[Sc As op]
+23.3 +17.1 68 +28 +28 душно 1014.7 1000.0 0.0
18 21.03 штиль 0 4000 м 9/5 1200 м
[Sc As op]
+22.2 +14.4 61 +25 +25 комфорт 1016.2 1000.6
21 21.03 штиль 0 4000 м 5/5 1200 м
[Sc]
+20.6 +13.6 64 +23 +23 комфорт 1015.9 1000.0
00 22.03 штиль 0 4000 м 5/5 1200 м
[Sc]
+20.0 +16.7 81 +22 +22 комфорт 1015.3 999.6
03 22.03 штиль 0 10 км 5/5 1200 м
[Sc]
+20.6 +14.6 68 +23 +25 комфорт 1017.1 1001.4 +19.1
06 22.03 штиль 0 10 км 9/5 1200 м
[Sc As op]
+25.0 +14.1 51 +27 +31 жарко 1018.6 1003.1
09 22.03 штиль 0 10 км 5/5 1200 м
[Sc]
+27.2 +14.6 46 +30 +40 душно 1016.4 1000.0
12 22.03 СЗ 1 10 км 5/5 1200 м
[Sc]
+27.8 +15.3 46 +30 +32 жарко 1013.7 998.5 +28.5
15 22.03 штиль 0 4000 м зарница 5/5 1200 м
[Sc]
+25.6 +15.7 54 +29 +29 душно 1014.3 998.9
18 22.03 штиль 0 4000 м 9/5 1200 м
[Sc As op]
+24.4 +16.4 61 +28 +28 душно 1015.2 1000.0
21 22.03 штиль 0 4000 м 9/5 1200 м
[Sc As op]
+22.8 +16.5 68 +27 +27 душно 1014.7 1000.0
00 23.03 штиль 0 4000 м 5/5 1200 м
[Sc]
+21.7 +16.6 73 +26 +26 душно 1013.2 997.6
03 23.03 штиль 0 10 км 9/5 1200 м
[Sc As op]
+21.7 +15.7 69 +25 +26 комфорт 1015.2 999.6 +20.5
06 23.03 штиль 0 10 км ясно +26.4 +14.0 46 +29 +49 жарко 1016.4 1000.0
09 23.03 ЮЗ 1 10 км ясно +28.9 +13.1 38 +30 +48 жарко 1012.5 1000.0
12 23.03 СЗ 1 10 км 5/5 1200 м
[Sc]
+30.6 +13.0 34 +32 +33 жарко 1010.6 995.5 +31.1
15 23.03 штиль 0 4000 м 5/5 1200 м
[Sc]
+27.2 +15.0 47 +30 +30 душно 1011.2 1000.0
18 23.03 штиль 0 4000 м 9/9 300 м
[Sc As op]
+25.6 +15.7 54 +29 +29 душно 1012.6 997.2
21 23.03 штиль 0 50 км {гроза} ?/? +21.7 +16.6 73 +26 +26 душно 1012.6 1000.0 0.0

 

Местоположение метеостанции Сиби (Пакистан): широта 29.55 долгота 67.88 высота над уровнем моря 134 м.

В архиве по умолчанию представлена погода в Сиби за последнюю неделю. Архивные данные за месяц целиком и за предыдущие месяцы, начиная с января 2011 года, Вы можете получить, выбрав интересующий диапазон дат из раскрывающегося списка и нажав кнопку "Ввод!".


*Определитесь, кто Вы:
робот инопланетянин человек

Внимание! Время в таблицах - всемирное. Для получения местного времени необходимо прибавить поправку, которая равна 5 ч.

Смотрите также архив погоды в соседних городах и на ближайших метеорологических станциях:

Погода в Кветта Шейх Манда (Пакистан) (122 км)
Погода в Кветте (Пакистан) (124 км)
Погода в Калате (Пакистан) (139 км)
Погода в Джейкобабаде (Пакистан) (150 км)
Погода в Бархане (Пакистан) (181 км)
Погода в Суккуре (Пакистан) (222 км)
Погода в Ларкане (Пакистан) (224 км)
Погода в Хуздаре (Пакистан) (227 км)
Погода в Рохри (Пакистан) (232 км)
Погода в Мохенджо-Даро (Пакистан) (249 км)

Пояснения к столбцам:

Ветер - указаны скорость ветра в м/с - средняя за 10 мин, порывы в срок и между сроками (в фигурных скобках) и направление, откуда дует ветер: С - северный, СВ - северо-восточный, В - восточный, ЮВ - юго-восточный, Ю - южный, ЮЗ - юго-западный, З - западный, СЗ - северо-западный.
Видимость - горизонтальная дальность видимости в метрах или километрах. При видимости от 1 до 10 км при отсутствии осадков обычно наблюдается дымка, при ухудшении видимости до 1 км и менее - туман. В сухую погоду видимость может ухудшаться дымом, пылью или мглою.
Явления - указаны атмосферные явления, наблюдавшиеся в срок или в последний час перед сроком; фигурными скобками обозначены явления, наблюдавшиеся между сроками (за 1-3 часа до срока); квадратными скобками обозначены град или гололедные отложения с указанием их диаметра в мм.
Облачность - указаны через наклонную черту общая и нижняя облачность в баллах и высота нижней границы облаков в метрах; квадратными скобками обозначены формы облаков: Ci - перистые, Cs - перисто-слоистые, Cc - перисто-кучевые, Ac - высококучевые, As - высокослоистые, Sc - слоисто-кучевые, Ns - слоисто-дождевые, Cu - кучевые, Cb - кучево-дождевые. Подробнее классификацию облаков см. в Атласе облаков (PDF).
T - Температура воздуха - температура, измеренная на высоте 2 м над землей.
Td - Температура точки росы - температура, при понижении до которой содержащийся в воздухе водяной пар достигнет насыщения.
f - Относительная влажность воздуха - влажноcть воздуха, измеренная на высоте 2 м над землей.
Te - Эффективная температура - температура, которую ощущает одетый по сезону человек в тени. Характеристика душности погоды. При расчете учитывается влияние влажности воздуха и скорости ветра на теплоощущения человека.
Tes - Эффективная температура на солнце - температура, которую ощущает человек, с поправкой на солнечный нагрев. Характеристика знойности погоды. Зависит от высоты солнца над горизонтом, облачности и скорости ветра. Ночью, в пасмурную погоду, а также при ветре 12 м/с и более поправка равна нулю.
P - Атмосферное давление - приведенное к уровню моря атмосферное давление.
Po - Атмосферное давление - измеренное на уровне метеостанции атмосферное давление.
Tmin - Минимальная температура - минимум температуры воздуха на высоте 2 м над землей.
Tmax - Максимальная температура - максимум температуры воздуха на высоте 2 м над землей.
R - Количество осадков - Количество выпавших осадков за период времени, мм. При наведении курсора мыши на число - период времени, за который выпало указанное количество осадков.
R24 - Количество осадков - Количество выпавших осадков за 24 часа, мм.
S - Снежный покров - Высота снежного покрова, см. При наведении курсора мыши на число - состояние снежного покрова и степень покрытия местности в баллах.